SCP
1 1 1 1 1 1 1 0 0 0 0 0 0 0 0 0 0 0 0 0 0 0 0 0 0 0 0 0 0 0 0 0 1 1 1 1 0 0 0 0 0 0 0 0
1 1 1 1 1 1 1 0 0 0 0 0 0 0 0 0 0 0 0 0 0 0 0 0 0 0 0 0 0 0 1 1 1 1 1 1 1 0 0 0 0 0 0 0
1 0 0 1 1 1 1 0 0 0 0 0 0 0 0 0 0 0 0 0 0 0 0 0 0 0 0 0 0 1 1 1 0 1 1 1 1 0 0 0 0 0 0 0
0 0 0 0 1 1 1 0 0 0 0 0 0 0 0 0 0 0 0 0 0 0 0 0 0 0 0 1 1 1 1 1 0 1 1 1 1 1 0 0 0 0 0 0
1 0 0 0 0 1 0 0 0 0 0 0 0 0 0 0 0 0 0 0 0 0 0 0 0 1 1 1 1 1 1 1 0 0 1 1 1 1 1 1 0 0 0 0
1 1 1 0 1 0 0 0 0 0 0 0 0 0 0 0 0 0 0 0 0 0 0 0 0 1 1 1 1 1 1 1 0 0 0 0 1 1 1 1 0 0 0 0
1 1 1 1 1 1 0 0 0 0 0 0 0 0 0 0 0 0 0 0 0 0 0 0 0 1 1 1 1 1 1 1 0 0 0 0 0 1 1 1 1 0 0 0
1 1 0 0 0 0 0 0 0 0 0 0 0 0 0 0 0 0 0 0 0 0 0 0 0 1 1 1 1 1 1 1 0 0 0 0 0 0 1 1 1 0 0 0
0 0 0 0 0 0 0 0 0 0 0 0 0 0 0 0 0 0 0 0 0 0 0 0 0 0 0 0 1 1 1 1 0 0 0 0 0 0 0 0 0 0 0 0
0 0 0 0 0 0 0 0 0 0 0 0 0 0 0 0 0 0 0 0 0 0 0 0 0 0 0 0 0 0 0 0 0 0 0 0 0 0 0 0 0 0 0 0
0 0 0 0 0 0 0 0 0 0 0 0 0 0 0 0 0 0 0 0 0 0 0 0 0 0 0 0 0 0 0 0 0 0 0 0 0 0 0 0 0 0 0 0
0 0 0 0 0 0 0 0 0 0 0 0 0 0 0 0 0 0 0 0 0 0 0 0 0 0 0 0 0 0 0 0 0 0 0 0 0 0 0 0 0 0 0 0
0 0 0 0 0 0 0 0 0 0 0 0 0 0 0 0 0 0 0 0 0 0 0 0 0 0 0 0 0 0 0 0 0 0 0 0 0 0 0 0 0 0 0 0
0 0 0 0 0 0 0 0 0 0 0 0 0 0 0 0 0 0 0 0 0 0 0 0 0 0 0 0 0 0 0 0 0 0 0 0 0 0 0 0 0 0 0 0
0 0 0 0 0 0 0 0 0 0 0 0 0 0 0 0 0 0 0 0 0 0 0 0 0 0 0 0 0 0 0 0 0 0 0 0 0 0 0 0 0 0 0 0
0 0 0 0 0 0 0 0 0 0 0 0 0 0 0 0 0 0 0 0 0 0 0 0 0 0 0 0 0 0 0 0 0 0 0 0 0 0 0 0 0 0 0 0
0 0 0 0 0 0 0 0 0 0 0 0 0 0 0 0 0 0 0 0 0 0 0 0 0 0 0 0 0 0 0 0 0 0 0 0 0 0 0 0 0 0 0 0
0 0 0 0 0 0 0 0 0 0 0 0 0 0 0 0 0 0 0 0 0 0 0 0 0 0 0 0 0 0 0 0 0 0 0 0 0 0 0 0 0 0 0 0
0 0 0 0 0 0 0 0 0 0 0 0 0 0 0 0 0 0 0 0 0 0 0 0 0 0 0 0 0 0 0 0 0 0 0 0 0 0 0 0 0 0 0 0
0 0 0 0 0 0 0 0 0 0 0 0 0 0 0 0 0 0 0 0 0 0 0 0 0 0 0 0 0 0 0 0 0 0 0 0 0 0 0 0 0 0 0 0
0 0 0 0 0 0 0 0 0 0 0 0 0 0 0 0 0 0 0 0 0 0 0 0 0 0 0 0 0 0 0 0 0 0 0 0 0 0 0 0 0 0 0 0
0 0 0 0 0 0 0 0 0 0 0 0 0 0 0 0 0 0 0 0 0 0 0 0 0 0 0 0 0 0 0 0 0 0 0 0 0 0 0 0 0 0 0 0
0 0 0 0 0 0 0 0 0 0 0 0 0 0 0 0 0 0 0 0 0 0 0 0 0 0 0 0 0 0 0 0 0 0 0 0 0 0 0 0 0 0 0 0
0 0 0 0 0 0 0 0 0 0 0 0 0 0 0 0 0 0 0 0 0 0 0 0 0 0 0 0 0 0 0 0 0 0 0 0 0 0 0 0 0 0 0 0
0 0 0 0 0 0 0 0 0 0 0 0 0 0 0 0 0 0 0 0 0 0 0 0 0 0 0 0 0 0 0 0 0 0 0 0 0 0 0 0 0 0 0 0
0 0 0 0 0 0 0 0 0 0 0 0 0 0 0 0 0 0 0 0 0 0 0 0 0 0 0 0 0 0 0 0 0 0 0 0 0 0 0 0 0 0 0 0
Wind_Speed
8 7 7 8 8 4 4 6 7 6 7 6 6 7 7 5 5 6 6 6 6 7 8 7 5 5 5 5 6 7 7 5 4 2 1 1 1 1 2 2 3 2 2 3
7 8 9 9 8 7 7 7 6 6 7 6 7 7 6 6 5 5 5 5 5 5 7 7 6 5 4 4 5 6 6 6 5 3 2 2 2 0 2 1 2 1 2 3
9 7 8 8 7 7 5 5 6 7 7 7 8 7 8 8 6 6 6 5 6 6 6 6 5 4 4 4 3 4 5 6 6 4 2 2 1 1 1 1 1 1 1 1
4 6 9 8 7 6 6 5 5 6 6 5 7 5 5 8 6 6 5 6 6 5 5 5 4 4 4 4 3 4 5 5 5 5 3 1 1 0 1 1 1 1 2 1
5 7 8 7 5 3 3 5 5 6 5 4 7 6 5 7 7 7 6 7 6 6 6 6 5 4 4 5 4 4 4 5 5 4 3 1 0 1 0 1 1 1 1 2
5 5 4 4 4 3 5 8 7 6 5 4 6 7 5 4 7 8 7 7 7 7 6 6 6 5 5 5 4 4 4 4 3 2 3 2 1 1 1 1 0 1 1 2
7 6 4 4 6 6 7 6 3 4 2 2 5 6 6 6 8 8 8 8 8 6 6 6 5 5 4 4 3 3 4 3 3 2 2 3 3 2 2 2 2 2 1 1
8 8 8 6 5 6 8 6 2 2 4 4 5 7 8 9 9 9 8 8 7 7 6 6 5 5 4 4 3 2 3 3 2 2 2 2 2 2 1 2 1 2 1 1
5 8 8 6 4 4 5 4 3 2 1 3 6 10 9 8 8 8 8 8 7 7 6 6 5 4 4 4 3 2 2 2 2 2 2 1 1 1 1 1 2 2 1 1
3 7 9 6 5 6 6 3 3 3 3 3 7 9 8 10 9 8 8 7 7 7 7 6 5 5 4 4 3 3 2 2 1 1 1 1 1 1 1 2 2 2 2 2
5 6 9 9 8 8 7 5 3 3 2 2 4 4 8 11 9 9 9 8 7 7 6 6 5 5 5 4 3 3 2 2 1 1 1 1 1 1 1 2 2 2 3 3
4 3 8 10 6 2 4 5 4 2 1 1 3 5 8 9 8 8 9 8 7 7 6 6 5 5 5 4 4 4 3 3 2 2 2 2 1 1 2 2 2 3 4 3
2 2 4 7 7 7 6 5 5 5 3 2 2 7 9 9 9 8 8 8 7 6 6 6 5 5 4 4 4 4 4 3 2 2 2 3 2 2 3 3 3 3 4 4
2 4 4 3 2 7 9 7 6 6 4 3 3 11 11 10 9 9 8 8 7 6 6 5 4 4 4 4 3 4 3 3 2 2 2 2 3 3 3 4 4 4 4 5
5 6 6 4 4 4 6 7 7 8 6 3 4 10 12 11 10 9 8 8 7 6 6 5 4 4 3 3 3 3 3 3 3 2 2 2 3 3 3 4 4 5 5 6
7 7 6 6 6 6 7 8 8 7 5 3 4 5 10 11 10 9 9 8 7 6 5 5 5 4 3 4 4 4 3 3 3 3 3 3 3 4 4 4 4 5 5 5
8 9 8 6 6 7 9 10 10 8 6 5 5 6 12 12 11 10 9 8 7 6 5 4 4 4 3 4 4 3 3 3 4 4 4 4 4 4 4 5 5 5 5 5
8 9 6 6 7 9 2 3 4 5 5 4 4 9 11 11 9 8 8 8 7 6 5 4 3 3 3 4 4 4 3 3 4 4 4 4 4 4 4 5 5 5 5 5
8 7 5 6 8 6 5 6 7 6 5 5 6 10 11 12 10 7 8 8 7 6 5 4 3 3 4 5 5 4 4 4 4 5 5 5 5 5 5 5 5 5 5 6
7 8 7 7 8 7 3 9 7 4 4 7 8 11 12 11 8 7 9 9 7 6 4 4 3 3 4 4 4 4 4 5 5 5 5 6 5 5 5 5 5 5 5 6
8 8 10 9 9 4 7 10 8 5 3 8 9 11 11 8 5 9 11 9 7 6 5 3 3 3 3 4 4 4 5 5 5 5 5 5 6 6 5 5 4 5 5 6
9 7 8 8 10 5 10 8 5 3 6 7 9 9 9 7 9 11 10 8 7 6 4 3 2 2 2 2 3 3 4 4 4 4 5 5 6 6 6 5 5 5 6 6
5 3 2 2 2 6 6 4 5 5 5 6 7 8 8 8 9 9 8 7 6 5 4 3 2 1 1 1 2 2 3 3 4 5 5 5 6 5 5 5 5 5 5 5
4 2 1 1 5 6 5 4 4 3 4 5 6 7 8 8 8 8 7 6 5 4 4 3 2 1 0 1 1 1 2 3 4 5 5 5 5 5 5 5 4 4 4 5
1 2 3 4 3 4 4 4 4 4 5 5 5 6 6 7 6 6 6 5 4 4 3 3 2 1 1 1 1 1 2 3 5 5 5 5 5 5 5 5 5 6 5 5
4 4 5 4 4 4 5 6 6 5 5 6 6 6 6 6 5 5 4 4 4 3 3 2 2 2 2 2 2 2 2 3 4 5 5 4 4 4 4 5 6 8 9 12
Wind_Direction
192 207 209 203 204 197 192 172 162 155 147 154 147 131 131 131 140 141 139 139 154 151 143 133 132 125 134 141 135 135 142 137 119 105 94 89 83 35 76 72 73 35 11 14
181 210 206 196 185 185 180 165 160 146 148 150 133 120 117 116 117 117 121 123 131 128 130 132 136 135 145 140 146 148 141 134 124 120 127 132 118 109 107 88 97 44 33 22
190 191 187 184 180 178 161 170 161 154 149 155 136 125 127 122 118 107 97 97 96 95 104 114 118 126 135 137 144 132 132 131 127 135 115 80 81 316 88 136 123 121 94 57
189 179 180 185 185 176 167 167 160 165 167 163 152 126 131 130 119 110 97 86 83 85 97 105 108 112 125 129 126 131 132 132 131 133 122 143 177 163 163 147 136 210 159 130
171 174 178 180 176 168 144 162 185 195 198 182 155 133 136 127 121 108 99 92 90 80 83 92 89 89 91 96 98 107 119 118 124 134 140 195 301 303 352 82 118 262 180 166
153 158 162 173 164 161 180 189 201 216 217 195 171 136 126 122 117 109 100 95 88 80 81 86 84 82 80 83 89 93 104 105 115 139 160 185 222 266 285 268 216 270 235 191
158 160 161 175 166 184 217 212 192 195 193 172 158 119 113 112 105 102 97 89 85 81 77 80 89 95 96 99 105 113 116 118 136 183 209 198 210 237 242 235 229 251 267 210
161 165 175 191 208 193 213 225 235 204 175 166 167 117 115 104 97 96 93 89 86 81 78 77 85 97 106 110 119 130 133 140 160 205 231 230 213 216 238 232 244 246 252 224
176 157 165 184 224 262 226 211 233 277 230 162 125 112 120 118 113 105 98 90 83 83 82 79 77 89 104 113 118 119 127 141 166 217 230 252 283 238 259 276 266 264 265 248
244 156 166 176 217 233 271 259 210 211 195 169 144 152 153 147 136 123 110 101 93 88 83 76 65 61 74 87 94 100 99 110 136 238 277 302 310 310 296 284 293 301 297 290
234 181 163 177 210 207 204 225 231 249 226 159 149 116 133 145 138 128 118 112 106 96 88 82 73 61 59 66 76 83 83 76 64 339 303 341 299 303 300 289 291 291 283 270
220 240 181 184 189 261 262 257 246 254 249 172 129 109 115 124 123 121 118 112 103 96 93 88 79 72 63 59 56 57 53 57 47 8 350 348 351 323 300 290 279 278 278 274
330 240 190 173 181 201 230 249 276 289 279 249 159 133 131 129 125 121 119 117 110 102 93 86 80 73 67 61 52 49 41 38 49 36 5 355 350 338 322 316 308 301 299 294
300 266 257 236 219 189 202 213 239 262 263 259 143 135 148 145 139 134 129 121 113 105 96 89 86 83 79 74 64 52 36 22 32 43 25 1 342 349 340 329 323 317 313 307
243 252 243 237 245 225 210 209 223 246 267 271 134 143 159 153 146 139 133 123 116 109 100 92 86 77 74 71 64 56 40 22 21 35 26 2 342 349 342 332 328 323 316 311
244 266 252 232 227 227 228 222 226 236 249 225 145 132 135 139 139 143 140 132 124 112 101 93 85 74 60 63 55 44 32 19 18 29 21 3 354 352 344 333 329 321 312 307
224 249 263 255 221 222 231 221 216 218 216 209 197 150 137 143 151 149 142 137 129 118 104 87 76 67 48 51 48 36 25 20 24 28 16 3 353 344 339 334 326 312 305 303
256 251 254 258 238 235 196 106 161 192 210 198 152 140 150 149 139 134 138 137 131 122 110 91 72 65 47 49 44 28 17 25 30 25 8 355 350 343 334 324 315 307 306 306
253 267 267 260 256 243 181 160 161 176 200 179 156 146 143 135 129 141 142 133 125 116 106 92 67 58 46 42 31 17 11 22 31 19 356 349 346 335 326 319 311 307 305 299
241 252 252 251 253 255 156 140 143 166 202 178 162 151 148 149 164 166 146 132 123 113 103 87 68 50 44 35 23 14 12 20 21 8 350 342 332 322 315 310 308 308 303 297
197 219 232 246 252 252 118 130 145 186 196 154 154 153 158 169 150 134 135 131 125 117 109 98 80 61 45 24 16 15 15 13 5 353 340 326 322 316 309 309 309 308 306 307
192 201 212 224 237 220 137 153 173 113 104 135 142 148 151 139 115 122 130 131 131 128 124 120 105 80 58 28 16 14 10 357 348 336 326 319 316 316 323 318 311 312 314 310
212 228 213 206 113 84 122 112 84 92 117 123 133 137 139 133 131 131 134 136 137 138 137 131 125 108 58 33 28 357 346 340 330 321 317 313 315 318 323 326 322 317 314 310
199 208 264 134 137 141 135 110 104 100 103 105 116 129 137 139 142 141 142 143 145 147 143 144 147 161 244 8 346 319 327 324 319 314 312 312 318 325 329 326 316 315 314 314
81 136 228 233 169 144 161 159 145 130 124 123 121 126 131 137 144 145 149 151 151 151 151 159 169 183 256 287 294 309 324 326 319 316 320 323 325 321 316 312 307 307 294 292
244 218 221 220 183 177 162 157 152 153 149 144 141 139 137 140 144 148 151 150 153 161 168 176 179 200 250 280 291 296 310 314 315 317 318 313 311 309 305 302 304 296 289 293